QPF
0.00 0.00 0.00 0.00 0.01 0.02 0.03 0.02 0.01 0.01 0.01 0.01 0.01 0.00 0.00 0.00 0.01 0.01 0.02 0.03 0.01 0.01 0.01 0.01 0.01 0.01 0.01 0.01 0.01 0.01 0.02 0.02 0.02 0.01 0.02 0.03 0.03 0.04 0.04 0.04 0.06 0.08 0.13 0.17 0.14 0.11 0.10 0.07 0.07
0.00 0.00 0.00 0.00 0.01 0.02 0.02 0.01 0.01 0.01 0.01 0.00 0.00 0.00 0.00 0.00 0.00 0.01 0.02 0.02 0.01 0.02 0.02 0.01 0.01 0.01 0.01 0.00 0.01 0.01 0.01 0.01 0.01 0.01 0.01 0.02 0.02 0.03 0.03 0.04 0.07 0.11 0.14 0.17 0.15 0.11 0.10 0.09 0.08
0.00 0.00 0.00 0.01 0.01 0.01 0.01 0.02 0.01 0.02 0.01 0.01 0.00 0.00 0.00 0.00 0.00 0.00 0.01 0.01 0.00 0.01 0.02 0.02 0.01 0.01 0.01 0.00 0.00 0.01 0.01 0.01 0.01 0.01 0.02 0.02 0.01 0.02 0.03 0.03 0.05 0.09 0.09 0.10 0.11 0.11 0.11 0.10 0.10
0.00 0.00 0.00 0.01 0.01 0.01 0.01 0.02 0.02 0.02 0.01 0.01 0.00 0.00 0.00 0.00 0.00 0.00 0.00 0.00 0.00 0.01 0.01 0.01 0.01 0.01 0.01 0.00 0.01 0.01 0.01 0.01 0.02 0.01 0.01 0.01 0.01 0.02 0.03 0.03 0.02 0.03 0.04 0.04 0.04 0.07 0.08 0.10 0.11
0.00 0.00 0.00 0.00 0.00 0.00 0.01 0.01 0.01 0.01 0.02 0.02 0.01 0.00 0.00 0.00 0.00 0.00 0.00 0.00 0.00 0.01 0.02 0.01 0.01 0.01 0.01 0.01 0.00 0.01 0.01 0.02 0.02 0.02 0.01 0.02 0.01 0.01 0.03 0.04 0.03 0.03 0.03 0.04 0.03 0.03 0.06 0.08 0.12
0.00 0.00 0.00 0.00 0.00 0.00 0.01 0.01 0.01 0.01 0.01 0.02 0.02 0.01 0.01 0.01 0.00 0.01 0.00 0.01 0.00 0.00 0.01 0.02 0.02 0.02 0.02 0.02 0.01 0.01 0.01 0.01 0.01 0.02 0.02 0.01 0.01 0.02 0.04 0.06 0.07 0.06 0.05 0.04 0.02 0.02 0.03 0.04 0.09
0.00 0.00 0.00 0.00 0.00 0.01 0.01 0.02 0.01 0.03 0.03 0.02 0.02 0.01 0.01 0.01 0.01 0.00 0.00 0.01 0.01 0.01 0.01 0.01 0.01 0.02 0.03 0.03 0.02 0.01 0.01 0.02 0.02 0.02 0.02 0.02 0.02 0.02 0.03 0.06 0.11 0.12 0.07 0.05 0.04 0.03 0.02 0.03 0.06
0.00 0.00 0.00 0.00 0.00 0.01 0.04 0.04 0.02 0.02 0.03 0.03 0.03 0.02 0.01 0.01 0.01 0.00 0.00 0.01 0.01 0.01 0.01 0.01 0.02 0.02 0.02 0.02 0.02 0.02 0.02 0.03 0.03 0.02 0.02 0.02 0.02 0.02 0.03 0.04 0.09 0.10 0.09 0.08 0.08 0.07 0.04 0.03 0.06
0.00 0.00 0.00 0.00 0.00 0.02 0.03 0.03 0.01 0.02 0.02 0.04 0.04 0.03 0.02 0.01 0.01 0.01 0.00 0.01 0.01 0.01 0.01 0.01 0.02 0.03 0.03 0.02 0.02 0.02 0.02 0.03 0.03 0.01 0.02 0.02 0.02 0.02 0.03 0.05 0.09 0.06 0.07 0.10 0.10 0.10 0.07 0.04 0.05
0.00 0.00 0.00 0.00 0.00 0.01 0.02 0.01 0.01 0.03 0.03 0.04 0.04 0.03 0.02 0.02 0.02 0.02 0.01 0.01 0.01 0.01 0.02 0.02 0.02 0.03 0.03 0.02 0.02 0.01 0.01 0.02 0.02 0.02 0.01 0.03 0.03 0.03 0.03 0.05 0.09 0.06 0.04 0.07 0.10 0.08 0.07 0.05 0.04
0.00 0.00 0.00 0.00 0.00 0.00 0.02 0.01 0.02 0.04 0.03 0.03 0.04 0.03 0.02 0.09 0.10 0.05 0.02 0.01 0.02 0.03 0.03 0.03 0.02 0.02 0.02 0.02 0.02 0.01 0.01 0.01 0.01 0.02 0.01 0.02 0.03 0.04 0.04 0.04 0.04 0.04 0.04 0.05 0.06 0.06 0.05 0.04 0.03
0.00 0.00 0.00 0.00 0.00 0.00 0.02 0.03 0.03 0.02 0.02 0.02 0.02 0.03 0.04 0.08 0.09 0.04 0.03 0.03 0.03 0.03 0.03 0.03 0.02 0.01 0.01 0.01 0.01 0.01 0.01 0.01 0.01 0.01 0.01 0.02 0.03 0.04 0.05 0.05 0.04 0.05 0.06 0.05 0.05 0.05 0.06 0.05 0.05
0.00 0.00 0.00 0.00 0.00 0.00 0.01 0.05 0.05 0.02 0.01 0.01 0.01 0.03 0.07 0.11 0.04 0.03 0.04 0.04 0.05 0.05 0.04 0.03 0.02 0.01 0.01 0.02 0.01 0.01 0.01 0.00 0.00 0.00 0.01 0.02 0.04 0.05 0.05 0.05 0.05 0.06 0.06 0.06 0.06 0.07 0.08 0.07 0.04
0.00 0.00 0.00 0.00 0.00 0.00 0.00 0.01 0.04 0.02 0.01 0.01 0.01 0.03 0.09 0.13 0.06 0.05 0.07 0.07 0.07 0.06 0.05 0.03 0.02 0.02 0.02 0.02 0.01 0.01 0.01 0.00 0.00 0.00 0.01 0.01 0.03 0.06 0.06 0.04 0.05 0.05 0.06 0.07 0.07 0.06 0.06 0.09 0.07
0.00 0.00 0.00 0.00 0.00 0.00 0.00 0.02 0.02 0.02 0.02 0.01 0.01 0.03 0.11 0.07 0.06 0.07 0.06 0.07 0.07 0.05 0.05 0.03 0.02 0.01 0.01 0.02 0.02 0.01 0.01 0.01 0.01 0.01 0.00 0.00 0.01 0.03 0.07 0.08 0.07 0.05 0.05 0.05 0.06 0.06 0.06 0.08 0.09
0.00 0.00 0.00 0.00 0.00 0.00 0.00 0.01 0.02 0.01 0.01 0.01 0.01 0.02 0.04 0.05 0.07 0.07 0.05 0.05 0.04 0.04 0.04 0.03 0.02 0.02 0.01 0.02 0.02 0.01 0.01 0.01 0.01 0.01 0.01 0.01 0.01 0.01 0.03 0.09 0.12 0.09 0.06 0.05 0.04 0.04 0.05 0.06 0.07
0.00 0.01 0.01 0.00 0.00 0.00 0.00 0.00 0.01 0.01 0.01 0.01 0.01 0.02 0.03 0.06 0.09 0.08 0.04 0.03 0.04 0.03 0.03 0.03 0.03 0.02 0.02 0.01 0.02 0.02 0.01 0.01 0.01 0.01 0.01 0.01 0.01 0.01 0.02 0.05 0.09 0.11 0.08 0.05 0.04 0.04 0.06 0.07 0.08
0.00 0.01 0.01 0.01 0.00 0.00 0.01 0.01 0.01 0.01 0.01 0.01 0.01 0.01 0.03 0.06 0.06 0.05 0.05 0.04 0.03 0.03 0.03 0.04 0.04 0.04 0.04 0.04 0.04 0.04 0.03 0.02 0.02 0.03 0.02 0.02 0.03 0.02 0.03 0.05 0.06 0.07 0.07 0.08 0.07 0.06 0.06 0.05 0.07
0.00 0.00 0.00 0.01 0.01 0.01 0.01 0.01 0.01 0.01 0.01 0.01 0.01 0.01 0.02 0.03 0.03 0.03 0.03 0.03 0.03 0.03 0.03 0.03 0.04 0.05 0.06 0.06 0.06 0.06 0.06 0.06 0.07 0.07 0.05 0.06 0.06 0.05 0.05 0.06 0.06 0.06 0.07 0.07 0.07 0.06 0.05 0.04 0.05
0.00 0.00 0.00 0.01 0.01 0.01 0.01 0.01 0.01 0.01 0.01 0.01 0.01 0.01 0.01 0.02 0.03 0.02 0.02 0.01 0.03 0.05 0.04 0.04 0.04 0.03 0.04 0.05 0.04 0.04 0.05 0.07 0.10 0.11 0.09 0.07 0.07 0.08 0.09 0.09 0.07 0.08 0.07 0.06 0.06 0.07 0.06 0.04 0.04
0.01 0.01 0.02 0.02 0.02 0.01 0.02 0.03 0.02 0.01 0.01 0.01 0.01 0.01 0.01 0.02 0.01 0.02 0.02 0.01 0.03 0.04 0.04 0.04 0.04 0.04 0.04 0.04 0.04 0.04 0.05 0.06 0.06 0.06 0.06 0.05 0.05 0.06 0.10 0.12 0.10 0.09 0.08 0.07 0.07 0.08 0.09 0.05 0.04
0.01 0.02 0.02 0.02 0.03 0.03 0.03 0.05 0.05 0.03 0.03 0.04 0.01 0.01 0.01 0.01 0.02 0.02 0.04 0.04 0.04 0.04 0.04 0.05 0.07 0.10 0.10 0.06 0.05 0.04 0.03 0.02 0.02 0.03 0.03 0.03 0.04 0.06 0.08 0.09 0.08 0.07 0.07 0.07 0.07 0.07 0.08 0.07 0.04
0.01 0.01 0.02 0.01 0.02 0.04 0.04 0.04 0.04 0.04 0.04 0.03 0.02 0.01 0.01 0.01 0.01 0.02 0.04 0.05 0.05 0.07 0.07 0.05 0.06 0.10 0.13 0.11 0.08 0.07 0.06 0.06 0.06 0.05 0.06 0.06 0.07 0.08 0.07 0.06 0.05 0.04 0.04 0.04 0.04 0.05 0.05 0.05 0.04
0.01 0.01 0.02 0.02 0.03 0.04 0.06 0.06 0.06 0.05 0.05 0.04 0.04 0.03 0.02 0.02 0.02 0.02 0.02 0.06 0.09 0.08 0.11 0.10 0.08 0.07 0.11 0.10 0.07 0.05 0.04 0.04 0.04 0.04 0.06 0.09 0.08 0.06 0.05 0.05 0.04 0.04 0.02 0.02 0.02 0.02 0.04 0.04 0.03
0.01 0.01 0.02 0.03 0.03 0.04 0.03 0.05 0.05 0.05 0.03 0.04 0.06 0.05 0.04 0.03 0.03 0.03 0.05 0.14 0.17 0.12 0.12 0.14 0.12 0.09 0.07 0.08 0.07 0.05 0.03 0.03 0.04 0.05 0.06 0.07 0.06 0.04 0.04 0.05 0.04 0.03 0.03 0.03 0.03 0.02 0.02 0.03 0.04
0.00 0.00 0.01 0.02 0.02 0.03 0.03 0.05 0.04 0.03 0.03 0.04 0.06 0.07 0.06 0.04 0.05 0.06 0.07 0.11 0.16 0.12 0.10 0.11 0.12 0.09 0.08 0.08 0.06 0.05 0.05 0.04 0.03 0.03 0.04 0.05 0.05 0.04 0.05 0.06 0.07 0.05 0.05 0.05 0.04 0.03 0.03 0.03 0.03
0.00 0.00 0.01 0.01 0.01 0.03 0.05 0.06 0.05 0.03 0.03 0.04 0.05 0.05 0.05 0.06 0.07 0.06 0.05 0.04 0.09 0.15 0.14 0.13 0.12 0.09 0.08 0.08 0.07 0.07 0.06 0.05 0.04 0.03 0.03 0.04 0.05 0.06 0.07 0.07 0.08 0.07 0.06 0.06 0.05 0.04 0.04 0.04 0.04
0.00 0.00 0.01 0.01 0.02 0.03 0.04 0.09 0.14 0.10 0.06 0.06 0.05 0.05 0.05 0.06 0.07 0.06 0.06 0.05 0.06 0.11 0.13 0.11 0.10 0.10 0.10 0.10 0.08 0.07 0.07 0.06 0.04 0.03 0.03 0.03 0.04 0.05 0.06 0.06 0.05 0.04 0.04 0.05 0.05 0.04 0.04 0.05 0.05
0.00 0.01 0.01 0.01 0.01 0.02 0.03 0.06 0.09 0.08 0.05 0.06 0.05 0.05 0.06 0.06 0.06 0.05 0.03 0.04 0.06 0.10 0.10 0.08 0.07 0.08 0.09 0.09 0.09 0.07 0.06 0.06 0.05 0.04 0.03 0.03 0.03 0.04 0.04 0.04 0.03 0.03 0.04 0.04 0.05 0.05 0.05 0.05 0.04
0.01 0.00 0.01 0.01 0.01 0.01 0.03 0.04 0.05 0.05 0.04 0.05 0.07 0.07 0.06 0.05 0.04 0.02 0.02 0.04 0.06 0.09 0.08 0.06 0.06 0.08 0.08 0.09 0.08 0.08 0.07 0.05 0.05 0.05 0.05 0.05 0.05 0.04 0.04 0.03 0.02 0.03 0.03 0.04 0.04 0.04 0.06 0.05 0.04
MSLP
1007.89 1008.95 1010.11 1011.19 1012.02 1012.50 1012.60 1012.36 1011.91 1011.42 1011.04 1010.91 1011.08 1011.51 1012.10 1012.73 1013.24 1013.52 1013.51 1013.23 1012.76 1012.21 1011.69 1011.30 1011.09 1011.04 1011.13 1011.28 1011.43 1011.54 1011.61 1011.64 1011.67 1011.75 1011.90 1012.11 1012.37 1012.63 1012.86 1013.03 1013.12 1013.14 1013.12 1013.09 1013.08 1013.09 1013.12 1013.16 1013.16
1008.27 1009.50 1010.72 1011.74 1012.41 1012.65 1012.46 1011.95 1011.27 1010.62 1010.16 1010.00 1010.19 1010.67 1011.33 1012.01 1012.56 1012.88 1012.92 1012.70 1012.31 1011.85 1011.44 1011.14 1011.02 1011.04 1011.17 1011.34 1011.50 1011.63 1011.71 1011.76 1011.83 1011.94 1012.12 1012.34 1012.60 1012.84 1013.04 1013.17 1013.23 1013.24 1013.21 1013.19 1013.19 1013.22 1013.27 1013.31 1013.33
1008.78 1010.12 1011.34 1012.25 1012.72 1012.71 1012.26 1011.52 1010.66 1009.90 1009.39 1009.25 1009.47 1010.00 1010.69 1011.39 1011.96 1012.29 1012.36 1012.20 1011.88 1011.52 1011.21 1011.02 1010.98 1011.07 1011.24 1011.44 1011.62 1011.75 1011.85 1011.92 1012.02 1012.16 1012.34 1012.57 1012.81 1013.03 1013.20 1013.30 1013.34 1013.33 1013.31 1013.31 1013.33 1013.38 1013.45 1013.51 1013.53
1009.38 1010.75 1011.90 1012.65 1012.90 1012.66 1012.00 1011.09 1010.13 1009.33 1008.84 1008.74 1009.01 1009.57 1010.27 1010.97 1011.52 1011.84 1011.92 1011.80 1011.56 1011.30 1011.10 1011.01 1011.06 1011.21 1011.41 1011.62 1011.80 1011.94 1012.04 1012.13 1012.25 1012.40 1012.60 1012.82 1013.04 1013.24 1013.37 1013.45 1013.47 1013.46 1013.45 1013.47 1013.52 1013.60 1013.68 1013.75 1013.79
1009.99 1011.30 1012.30 1012.85 1012.90 1012.45 1011.65 1010.66 1009.69 1008.94 1008.53 1008.51 1008.84 1009.43 1010.12 1010.79 1011.30 1011.59 1011.67 1011.58 1011.41 1011.25 1011.16 1011.17 1011.29 1011.49 1011.71 1011.92 1012.09 1012.21 1012.30 1012.40 1012.52 1012.68 1012.88 1013.10 1013.30 1013.47 1013.58 1013.63 1013.64 1013.64 1013.65 1013.68 1013.76 1013.86 1013.96 1014.05 1014.09
1010.50 1011.66 1012.45 1012.78 1012.62 1012.04 1011.16 1010.19 1009.30 1008.68 1008.41 1008.51 1008.92 1009.53 1010.21 1010.82 1011.27 1011.53 1011.60 1011.55 1011.46 1011.39 1011.40 1011.50 1011.68 1011.90 1012.12 1012.31 1012.44 1012.53 1012.61 1012.69 1012.82 1012.98 1013.19 1013.40 1013.59 1013.74 1013.83 1013.87 1013.87 1013.87 1013.89 1013.94 1014.04 1014.15 1014.27 1014.36 1014.41
1010.82 1011.75 1012.29 1012.39 1012.05 1011.37 1010.50 1009.63 1008.91 1008.48 1008.40 1008.65 1009.15 1009.79 1010.44 1010.99 1011.39 1011.61 1011.68 1011.68 1011.66 1011.69 1011.79 1011.96 1012.18 1012.40 1012.60 1012.74 1012.82 1012.87 1012.92 1012.99 1013.12 1013.29 1013.50 1013.71 1013.90 1014.04 1014.11 1014.14 1014.13 1014.13 1014.16 1014.22 1014.33 1014.45 1014.58 1014.67 1014.72
1010.91 1011.55 1011.81 1011.67 1011.18 1010.46 1009.67 1008.95 1008.46 1008.27 1008.41 1008.82 1009.41 1010.07 1010.70 1011.20 1011.55 1011.74 1011.83 1011.88 1011.94 1012.06 1012.24 1012.46 1012.70 1012.91 1013.06 1013.14 1013.17 1013.18 1013.20 1013.26 1013.39 1013.58 1013.80 1014.02 1014.21 1014.34 1014.41 1014.42 1014.41 1014.41 1014.43 1014.50 1014.61 1014.74 1014.86 1014.96 1015.01
1010.77 1011.10 1011.07 1010.71 1010.10 1009.38 1008.69 1008.18 1007.93 1007.99 1008.35 1008.92 1009.60 1010.28 1010.88 1011.34 1011.65 1011.84 1011.96 1012.06 1012.21 1012.41 1012.66 1012.92 1013.16 1013.34 1013.44 1013.47 1013.44 1013.41 1013.40 1013.47 1013.61 1013.82 1014.07 1014.31 1014.50 1014.64 1014.70 1014.70 1014.69 1014.68 1014.70 1014.77 1014.88 1015.01 1015.13 1015.23 1015.29
1010.47 1010.49 1010.19 1009.63 1008.93 1008.23 1007.67 1007.36 1007.35 1007.65 1008.20 1008.90 1009.65 1010.34 1010.92 1011.34 1011.63 1011.83 1011.99 1012.17 1012.39 1012.67 1012.97 1013.27 1013.50 1013.65 1013.70 1013.67 1013.60 1013.54 1013.54 1013.61 1013.78 1014.02 1014.29 1014.54 1014.76 1014.89 1014.96 1014.97 1014.95 1014.94 1014.96 1015.03 1015.14 1015.27 1015.40 1015.51 1015.58
1010.11 1009.87 1009.32 1008.60 1007.83 1007.17 1006.74 1006.61 1006.80 1007.29 1007.98 1008.78 1009.56 1010.25 1010.80 1011.20 1011.48 1011.70 1011.91 1012.15 1012.45 1012.79 1013.14 1013.45 1013.68 1013.80 1013.82 1013.76 1013.67 1013.60 1013.60 1013.70 1013.89 1014.16 1014.45 1014.73 1014.95 1015.10 1015.18 1015.19 1015.19 1015.19 1015.22 1015.30 1015.41 1015.55 1015.69 1015.80 1015.88
1009.83 1009.36 1008.63 1007.78 1006.98 1006.35 1006.02 1006.03 1006.37 1006.98 1007.76 1008.59 1009.38 1010.04 1010.56 1010.93 1011.22 1011.46 1011.72 1012.03 1012.39 1012.78 1013.16 1013.48 1013.71 1013.81 1013.82 1013.75 1013.66 1013.62 1013.64 1013.76 1013.98 1014.27 1014.57 1014.86 1015.09 1015.25 1015.34 1015.37 1015.39 1015.42 1015.47 1015.57 1015.71 1015.86 1016.01 1016.14 1016.23
1009.72 1009.08 1008.22 1007.29 1006.47 1005.88 1005.62 1005.72 1006.14 1006.81 1007.60 1008.42 1009.17 1009.78 1010.26 1010.62 1010.91 1011.18 1011.49 1011.84 1012.25 1012.67 1013.07 1013.40 1013.62 1013.73 1013.74 1013.69 1013.64 1013.63 1013.69 1013.84 1014.07 1014.36 1014.66 1014.94 1015.17 1015.33 1015.43 1015.50 1015.55 1015.62 1015.72 1015.86 1016.02 1016.20 1016.37 1016.51 1016.61
1009.83 1009.08 1008.14 1007.18 1006.36 1005.80 1005.59 1005.72 1006.16 1006.81 1007.57 1008.32 1008.99 1009.55 1009.98 1010.32 1010.62 1010.92 1011.26 1011.65 1012.07 1012.51 1012.90 1013.23 1013.46 1013.58 1013.63 1013.63 1013.63 1013.67 1013.77 1013.95 1014.18 1014.45 1014.72 1014.97 1015.18 1015.33 1015.46 1015.56 1015.66 1015.78 1015.94 1016.13 1016.33 1016.54 1016.73 1016.89 1017.00
1010.11 1009.31 1008.35 1007.39 1006.59 1006.06 1005.87 1006.00 1006.40 1006.99 1007.66 1008.31 1008.90 1009.38 1009.77 1010.09 1010.40 1010.72 1011.08 1011.48 1011.91 1012.33 1012.72 1013.03 1013.27 1013.43 1013.53 1013.60 1013.67 1013.77 1013.91 1014.09 1014.31 1014.54 1014.76 1014.96 1015.13 1015.27 1015.40 1015.54 1015.70 1015.89 1016.11 1016.35 1016.60 1016.84 1017.06 1017.23 1017.36
1010.47 1009.66 1008.71 1007.80 1007.05 1006.56 1006.38 1006.48 1006.82 1007.30 1007.84 1008.37 1008.85 1009.26 1009.61 1009.93 1010.24 1010.58 1010.95 1011.35 1011.76 1012.16 1012.52 1012.83 1013.07 1013.27 1013.43 1013.58 1013.73 1013.89 1014.07 1014.27 1014.45 1014.62 1014.78 1014.91 1015.03 1015.15 1015.28 1015.46 1015.67 1015.92 1016.21 1016.51 1016.81 1017.08 1017.32 1017.51 1017.65
1010.75 1009.97 1009.09 1008.26 1007.60 1007.17 1007.00 1007.06 1007.30 1007.65 1008.05 1008.45 1008.82 1009.15 1009.47 1009.78 1010.11 1010.47 1010.85 1011.25 1011.63 1011.99 1012.32 1012.60 1012.85 1013.09 1013.31 1013.54 1013.78 1014.01 1014.23 1014.43 1014.58 1014.69 1014.77 1014.83 1014.89 1014.98 1015.12 1015.32 1015.58 1015.89 1016.23 1016.58 1016.92 1017.22 1017.48 1017.69 1017.84
1010.85 1010.13 1009.36 1008.67 1008.12 1007.78 1007.62 1007.64 1007.77 1007.98 1008.22 1008.46 1008.71 1008.98 1009.26 1009.58 1009.94 1010.33 1010.73 1011.11 1011.47 1011.79 1012.08 1012.34 1012.59 1012.86 1013.15 1013.46 1013.77 1014.07 1014.34 1014.54 1014.66 1014.72 1014.73 1014.73 1014.74 1014.80 1014.93 1015.16 1015.45 1015.81 1016.19 1016.57 1016.93 1017.26 1017.53 1017.75 1017.93
1010.66 1010.06 1009.46 1008.95 1008.56 1008.32 1008.20 1008.17 1008.19 1008.23 1008.29 1008.37 1008.49 1008.67 1008.92 1009.26 1009.65 1010.08 1010.50 1010.89 1011.23 1011.52 1011.77 1012.01 1012.26 1012.55 1012.89 1013.27 1013.66 1014.03 1014.33 1014.55 1014.67 1014.69 1014.66 1014.61 1014.58 1014.63 1014.76 1014.99 1015.31 1015.69 1016.09 1016.49 1016.86 1017.19 1017.47 1017.70 1017.90
1010.21 1009.77 1009.39 1009.11 1008.93 1008.81 1008.73 1008.65 1008.53 1008.39 1008.24 1008.13 1008.11 1008.20 1008.42 1008.76 1009.20 1009.67 1010.14 1010.55 1010.89 1011.16 1011.38 1011.60 1011.84 1012.15 1012.53 1012.96 1013.41 1013.84 1014.19 1014.44 1014.57 1014.59 1014.54 1014.48 1014.44 1014.48 1014.61 1014.85 1015.18 1015.56 1015.97 1016.36 1016.72 1017.04 1017.32 1017.57 1017.79
1009.55 1009.35 1009.25 1009.24 1009.29 1009.32 1009.28 1009.13 1008.86 1008.51 1008.13 1007.80 1007.60 1007.57 1007.74 1008.09 1008.57 1009.10 1009.63 1010.08 1010.44 1010.71 1010.92 1011.11 1011.35 1011.66 1012.05 1012.52 1013.01 1013.49 1013.89 1014.18 1014.34 1014.39 1014.37 1014.32 1014.30 1014.35 1014.49 1014.74 1015.06 1015.43 1015.82 1016.19 1016.53 1016.83 1017.11 1017.36 1017.61
1008.85 1008.93 1009.15 1009.46 1009.75 1009.92 1009.92 1009.68 1009.24 1008.64 1008.00 1007.42 1007.02 1006.86 1006.96 1007.30 1007.81 1008.41 1009.00 1009.51 1009.91 1010.19 1010.40 1010.58 1010.80 1011.09 1011.48 1011.96 1012.48 1012.99 1013.43 1013.77 1013.98 1014.08 1014.11 1014.11 1014.13 1014.21 1014.38 1014.63 1014.94 1015.29 1015.65 1015.99 1016.29 1016.57 1016.83 1017.09 1017.36
1008.23 1008.64 1009.22 1009.84 1010.37 1010.68 1010.69 1010.35 1009.71 1008.85 1007.93 1007.10 1006.48 1006.16 1006.17 1006.48 1007.03 1007.68 1008.34 1008.92 1009.36 1009.67 1009.88 1010.04 1010.23 1010.50 1010.87 1011.32 1011.84 1012.36 1012.84 1013.22 1013.49 1013.66 1013.76 1013.83 1013.91 1014.04 1014.23 1014.49 1014.80 1015.12 1015.44 1015.73 1016.00 1016.25 1016.50 1016.76 1017.05
1007.81 1008.57 1009.49 1010.41 1011.16 1011.58 1011.57 1011.12 1010.28 1009.17 1007.98 1006.89 1006.05 1005.58 1005.49 1005.77 1006.32 1007.02 1007.73 1008.37 1008.85 1009.19 1009.40 1009.55 1009.70 1009.92 1010.24 1010.65 1011.14 1011.65 1012.13 1012.55 1012.88 1013.12 1013.29 1013.44 1013.59 1013.78 1014.01 1014.29 1014.58 1014.88 1015.16 1015.42 1015.65 1015.88 1016.11 1016.38 1016.67
1007.63 1008.71 1009.94 1011.12 1012.03 1012.53 1012.49 1011.93 1010.90 1009.57 1008.15 1006.83 1005.81 1005.20 1005.02 1005.25 1005.80 1006.52 1007.26 1007.93 1008.44 1008.79 1008.99 1009.11 1009.22 1009.38 1009.63 1009.98 1010.41 1010.88 1011.36 1011.79 1012.15 1012.45 1012.70 1012.93 1013.16 1013.40 1013.68 1013.97 1014.27 1014.55 1014.81 1015.03 1015.24 1015.44 1015.67 1015.93 1016.24
1007.65 1009.00 1010.46 1011.82 1012.84 1013.37 1013.29 1012.63 1011.47 1009.97 1008.39 1006.93 1005.78 1005.06 1004.82 1005.01 1005.53 1006.24 1006.98 1007.65 1008.16 1008.49 1008.67 1008.74 1008.79 1008.88 1009.05 1009.32 1009.68 1010.10 1010.53 1010.96 1011.34 1011.69 1012.00 1012.29 1012.59 1012.90 1013.22 1013.54 1013.84 1014.12 1014.36 1014.57 1014.76 1014.95 1015.17 1015.44 1015.75
1007.77 1009.30 1010.90 1012.34 1013.40 1013.92 1013.81 1013.08 1011.85 1010.29 1008.64 1007.13 1005.93 1005.18 1004.90 1005.05 1005.53 1006.20 1006.90 1007.53 1008.00 1008.28 1008.41 1008.43 1008.41 1008.42 1008.50 1008.69 1008.96 1009.31 1009.69 1010.09 1010.47 1010.84 1011.19 1011.54 1011.90 1012.26 1012.62 1012.98 1013.31 1013.60 1013.84 1014.05 1014.24 1014.43 1014.65 1014.91 1015.23
1007.89 1009.48 1011.10 1012.53 1013.56 1014.03 1013.89 1013.15 1011.93 1010.41 1008.82 1007.37 1006.23 1005.51 1005.23 1005.36 1005.79 1006.38 1007.00 1007.54 1007.92 1008.13 1008.18 1008.13 1008.03 1007.97 1007.97 1008.07 1008.26 1008.53 1008.85 1009.20 1009.56 1009.93 1010.30 1010.69 1011.09 1011.50 1011.91 1012.31 1012.67 1012.99 1013.26 1013.48 1013.68 1013.88 1014.11 1014.38 1014.69
1007.90 1009.43 1010.96 1012.28 1013.21 1013.62 1013.46 1012.77 1011.66 1010.29 1008.87 1007.59 1006.60 1005.98 1005.75 1005.87 1006.24 1006.73 1007.23 1007.63 1007.89 1007.99 1007.95 1007.81 1007.65 1007.51 1007.45 1007.47 1007.58 1007.77 1008.02 1008.31 1008.63 1008.97 1009.35 1009.75 1010.18 1010.63 1011.09 1011.53 1011.95 1012.31 1012.62 1012.88 1013.11 1013.33 1013.57 1013.84 1014.16
1007.76 1009.13 1010.47 1011.61 1012.40 1012.73 1012.58 1011.99 1011.06 1009.93 1008.78 1007.76 1006.99 1006.53 1006.38 1006.49 1006.79 1007.16 1007.50 1007.74 1007.85 1007.82 1007.67 1007.46 1007.23 1007.04 1006.91 1006.87 1006.91 1007.03 1007.20 1007.42 1007.68 1007.99 1008.33 1008.73 1009.17 1009.65 1010.15 1010.65 1011.12 1011.54 1011.90 1012.22 1012.50 1012.75 1013.01 1013.30 1013.61
Thickness
5819 5817 5815 5803 5781 5762 5761 5780 5797 5804 5810 5822 5826 5822 5811 5802 5792 5782 5804 5810 5806 5801 5798 5795 5793 5791 5790 5788 5787 5786 5784 5782 5781 5779 5778 5776 5775 5774 5773 5772 5771 5770 5769 5768 5767 5766 5764 5764 5763
5818 5816 5806 5789 5764 5747 5760 5786 5796 5807 5817 5826 5825 5822 5812 5805 5811 5806 5805 5806 5805 5801 5798 5795 5792 5790 5788 5787 5785 5784 5782 5781 5779 5777 5775 5774 5773 5772 5771 5769 5768 5767 5766 5765 5764 5763 5763 5762 5761
5817 5814 5793 5775 5761 5754 5768 5792 5803 5815 5825 5826 5819 5820 5813 5806 5811 5809 5811 5808 5804 5800 5797 5794 5791 5789 5787 5785 5783 5782 5780 5779 5777 5775 5773 5772 5771 5770 5768 5767 5766 5765 5764 5763 5762 5761 5760 5760 5759
5811 5798 5785 5767 5763 5778 5790 5801 5810 5812 5820 5824 5818 5809 5814 5822 5820 5817 5813 5808 5802 5798 5796 5794 5791 5788 5786 5784 5782 5780 5779 5777 5775 5773 5771 5770 5768 5767 5766 5765 5764 5763 5762 5761 5760 5759 5759 5758 5758
5804 5784 5766 5756 5768 5789 5804 5812 5815 5811 5813 5817 5814 5801 5802 5819 5824 5819 5812 5807 5802 5798 5795 5793 5790 5787 5784 5782 5780 5779 5777 5775 5773 5771 5769 5768 5766 5765 5763 5763 5762 5761 5760 5759 5759 5758 5757 5756 5756
5786 5773 5753 5749 5770 5794 5807 5817 5815 5811 5810 5813 5810 5800 5799 5816 5816 5813 5811 5806 5803 5798 5794 5791 5788 5785 5783 5781 5778 5777 5775 5773 5771 5769 5768 5766 5764 5762 5761 5761 5759 5759 5758 5758 5757 5756 5755 5754 5754
5776 5764 5754 5761 5770 5786 5806 5818 5814 5808 5805 5810 5815 5797 5797 5808 5813 5812 5809 5805 5800 5796 5792 5789 5786 5784 5781 5778 5777 5775 5773 5771 5769 5767 5765 5764 5762 5760 5759 5759 5758 5757 5756 5755 5755 5754 5753 5752 5752
5786 5766 5760 5763 5771 5782 5807 5816 5818 5813 5809 5821 5819 5797 5792 5806 5814 5809 5803 5799 5795 5792 5789 5786 5784 5782 5780 5777 5774 5772 5770 5768 5766 5765 5763 5762 5760 5758 5757 5757 5756 5755 5754 5753 5752 5751 5750 5750 5749
5791 5758 5750 5764 5775 5786 5805 5808 5815 5823 5816 5815 5818 5813 5813 5816 5811 5802 5794 5790 5788 5786 5785 5783 5781 5779 5777 5775 5772 5770 5768 5766 5764 5762 5761 5759 5758 5756 5755 5755 5754 5753 5753 5751 5750 5750 5748 5747 5747
5776 5752 5763 5784 5792 5794 5801 5806 5810 5810 5804 5803 5807 5812 5815 5811 5805 5796 5789 5785 5784 5782 5782 5781 5779 5777 5775 5773 5770 5767 5765 5763 5761 5760 5758 5757 5756 5754 5754 5753 5752 5752 5751 5750 5749 5748 5747 5745 5745
5777 5768 5782 5793 5802 5804 5801 5806 5813 5803 5793 5801 5801 5803 5806 5804 5800 5794 5790 5788 5787 5785 5782 5780 5778 5776 5774 5771 5768 5765 5763 5761 5759 5757 5756 5755 5754 5753 5752 5751 5750 5750 5749 5748 5747 5745 5744 5743 5742
5777 5785 5792 5797 5806 5804 5803 5807 5807 5806 5806 5816 5815 5812 5806 5799 5796 5793 5790 5788 5787 5784 5781 5780 5778 5775 5773 5770 5766 5763 5761 5758 5757 5756 5754 5753 5752 5751 5750 5748 5748 5747 5746 5745 5744 5743 5742 5741 5740
5775 5783 5796 5802 5805 5806 5806 5805 5806 5808 5817 5818 5813 5808 5802 5799 5797 5796 5794 5790 5786 5782 5781 5779 5778 5775 5771 5768 5765 5762 5759 5757 5756 5754 5753 5752 5750 5749 5748 5746 5746 5745 5744 5743 5742 5741 5739 5738 5738
5780 5785 5792 5799 5802 5806 5801 5802 5802 5805 5815 5811 5806 5801 5800 5798 5795 5792 5790 5786 5783 5781 5780 5779 5776 5774 5771 5767 5764 5761 5759 5756 5754 5753 5752 5750 5749 5748 5746 5745 5744 5743 5742 5741 5739 5738 5737 5736 5735
5783 5776 5782 5793 5799 5803 5798 5787 5796 5807 5809 5803 5800 5799 5798 5797 5795 5792 5790 5788 5785 5781 5780 5778 5775 5772 5769 5766 5763 5761 5758 5755 5753 5752 5750 5749 5748 5747 5745 5742 5741 5741 5740 5739 5737 5736 5734 5733 5732
5769 5762 5757 5781 5794 5799 5786 5767 5793 5806 5802 5795 5796 5796 5794 5793 5793 5793 5791 5788 5786 5782 5778 5777 5775 5770 5767 5764 5762 5760 5757 5754 5752 5750 5749 5748 5747 5745 5743 5741 5739 5739 5738 5736 5734 5732 5730 5729 5727
5747 5739 5746 5766 5789 5790 5778 5767 5789 5800 5797 5791 5791 5791 5789 5788 5789 5790 5790 5788 5785 5782 5778 5773 5771 5768 5764 5762 5760 5758 5755 5752 5750 5749 5748 5746 5745 5743 5741 5739 5737 5736 5735 5733 5731 5728 5727 5724 5723
5729 5736 5744 5754 5775 5778 5769 5768 5783 5792 5791 5787 5786 5786 5785 5784 5784 5788 5788 5786 5784 5780 5776 5771 5768 5765 5762 5758 5756 5753 5750 5749 5748 5747 5745 5744 5742 5741 5739 5736 5734 5733 5731 5728 5727 5725 5724 5722 5720
5743 5740 5741 5757 5775 5769 5764 5765 5775 5783 5783 5780 5779 5779 5778 5780 5783 5785 5783 5781 5778 5774 5770 5768 5765 5762 5759 5754 5750 5747 5745 5744 5744 5744 5743 5742 5740 5738 5736 5734 5731 5729 5726 5724 5723 5721 5719 5717 5717
5742 5736 5740 5753 5771 5768 5760 5761 5772 5778 5778 5778 5776 5775 5774 5773 5774 5775 5776 5774 5771 5768 5766 5763 5762 5759 5757 5754 5751 5748 5744 5742 5741 5740 5739 5739 5737 5735 5733 5730 5728 5725 5723 5721 5720 5718 5715 5713 5712
5741 5737 5739 5743 5757 5763 5756 5746 5757 5769 5775 5776 5776 5775 5774 5772 5769 5769 5768 5767 5766 5763 5762 5761 5758 5756 5755 5752 5748 5744 5740 5737 5735 5734 5734 5735 5734 5732 5730 5727 5724 5722 5720 5717 5716 5715 5712 5708 5708
5731 5751 5750 5749 5738 5729 5741 5718 5741 5753 5758 5763 5765 5767 5768 5768 5766 5765 5764 5763 5762 5761 5760 5757 5754 5752 5751 5748 5744 5740 5736 5732 5732 5731 5731 5731 5730 5728 5726 5724 5721 5719 5717 5715 5713 5712 5710 5707 5703
5742 5756 5751 5747 5735 5725 5730 5717 5726 5744 5743 5750 5757 5761 5763 5765 5764 5762 5762 5761 5760 5758 5756 5753 5750 5749 5746 5744 5741 5738 5735 5733 5730 5729 5727 5725 5724 5723 5722 5720 5718 5715 5714 5712 5710 5709 5707 5705 5702
5753 5746 5740 5731 5718 5704 5719 5714 5714 5730 5741 5747 5751 5755 5758 5761 5760 5759 5758 5757 5755 5753 5751 5748 5745 5744 5742 5739 5737 5735 5732 5729 5726 5724 5722 5720 5719 5719 5718 5717 5715 5712 5710 5709 5707 5706 5704 5703 5701
5742 5716 5695 5693 5687 5694 5718 5712 5713 5738 5748 5750 5750 5752 5755 5757 5755 5752 5751 5750 5748 5747 5744 5742 5740 5738 5737 5734 5732 5731 5729 5726 5723 5721 5718 5716 5715 5714 5714 5713 5712 5710 5708 5706 5705 5703 5701 5699 5697
5732 5716 5690 5679 5680 5691 5709 5704 5719 5740 5748 5753 5753 5751 5750 5748 5749 5748 5747 5746 5745 5744 5741 5738 5735 5733 5732 5729 5726 5726 5725 5723 5721 5718 5716 5714 5712 5712 5711 5710 5708 5707 5705 5704 5702 5700 5698 5697 5695
5727 5716 5718 5697 5692 5684 5691 5706 5720 5736 5738 5741 5743 5743 5741 5743 5744 5744 5744 5743 5741 5739 5736 5733 5730 5729 5727 5724 5723 5721 5720 5718 5716 5714 5713 5711 5710 5709 5708 5706 5704 5703 5702 5700 5698 5696 5695 5694 5692
5734 5725 5704 5689 5676 5672 5683 5692 5697 5713 5720 5728 5730 5733 5736 5739 5740 5739 5739 5738 5737 5734 5731 5728 5725 5723 5722 5719 5718 5717 5714 5713 5711 5709 5707 5707 5706 5705 5704 5702 5701 5700 5698 5697 5694 5692 5692 5689 5688
5719 5713 5702 5690 5686 5672 5668 5681 5713 5713 5718 5720 5724 5729 5730 5733 5735 5735 5734 5734 5732 5728 5725 5721 5720 5718 5715 5712 5712 5711 5709 5708 5706 5705 5704 5703 5701 5701 5699 5698 5696 5695 5694 5693 5691 5689 5688 5685 5683
5719 5711 5699 5682 5679 5680 5672 5682 5720 5719 5720 5721 5722 5724 5727 5728 5729 5729 5729 5726 5723 5720 5718 5716 5714 5712 5709 5707 5706 5705 5703 5702 5701 5700 5700 5699 5697 5696 5695 5694 5692 5691 5690 5688 5687 5685 5684 5681 5679